EN

Hourly Weather Boratyn

Today, 16 April, Friday

Time Temperature Precipitation Wind Pressure Humidity
00:00 -1°C° 1.6 mm 5 mps 739 mmHg 98%
01:00 -1°C° 1.6 mm 5 mps 739 mmHg 98%
02:00 -2°C° 1.6 mm 6 mps 739 mmHg 98%
03:00 -2°C° 1.3 mm 6 mps 739 mmHg 98%
04:00 -2°C° 1.3 mm 6 mps 738 mmHg 98%
05:00 -2°C° 1.3 mm 6 mps 738 mmHg 98%
06:00 -2°C° 1.1 mm 6 mps 738 mmHg 98%
07:00 -2°C° 1.1 mm 6 mps 738 mmHg 98%
08:00 -2°C° 1.1 mm 6 mps 738 mmHg 98%
09:00 -2°C° 0.7 mm 6 mps 738 mmHg 99%
10:00 -1°C° 0.7 mm 5 mps 738 mmHg 99%
11:00 -1°C° 0.7 mm 5 mps 738 mmHg 99%
12:00 -1°C° 0.5 mm 5 mps 739 mmHg 99%
13:00 -1°C° 0.5 mm 5 mps 739 mmHg 99%
14:00 -1°C° 0.5 mm 5 mps 739 mmHg 99%
15:00 -1°C° 0.4 mm 5 mps 739 mmHg 99%
16:00 -1°C° 0.4 mm 5 mps 739 mmHg 99%
17:00 -1°C° 0.4 mm 5 mps 739 mmHg 99%
18:00 -1°C° 0.3 mm 5 mps 739 mmHg 99%
19:00 -1°C° 0.3 mm 4 mps 740 mmHg 99%
20:00 -1°C° 0.3 mm 4 mps 740 mmHg 99%
21:00 -1°C° 0.3 mm 4 mps 740 mmHg 99%
22:00 -1°C° 0.3 mm 4 mps 740 mmHg 99%
23:00 -1°C° 0.3 mm 4 mps 740 mmHg 99%

Tomorrow, 17 April, Saturday

Time Temperature Precipitation Wind Pressure Humidity
00:00 -1°C° 0.2 mm 4 mps 740 mmHg 99%
01:00 -1°C° 0.2 mm 4 mps 740 mmHg 99%
02:00 -1°C° 0.2 mm 4 mps 740 mmHg 99%
03:00 0°C° 0.1 mm 3 mps 740 mmHg 99%
04:00 0°C° 0.1 mm 3 mps 741 mmHg 99%
05:00 0°C° 0.1 mm 3 mps 741 mmHg 99%
06:00 0°C° 0 mm 3 mps 741 mmHg 99%
07:00 +1°C° 0 mm 2 mps 742 mmHg 99%
08:00 +1°C° 0 mm 2 mps 742 mmHg 99%
09:00 +1°C° 0 mm 2 mps 742 mmHg 99%
10:00 +2°C° 0 mm 2 mps 743 mmHg 98%
11:00 +2°C° 0 mm 2 mps 743 mmHg 98%
12:00 +2°C° 0 mm 2 mps 743 mmHg 98%
13:00 +2°C° 0 mm 2 mps 743 mmHg 98%
14:00 +2°C° 0 mm 2 mps 743 mmHg 97%
15:00 +3°C° 0 mm 2 mps 743 mmHg 97%
16:00 +4°C° 0 mm 1 mps 743 mmHg 97%
17:00 +4°C° 0 mm 1 mps 743 mmHg 97%
18:00 +4°C° 0 mm 1 mps 744 mmHg 98%
19:00 +3°C° 0 mm 1 mps 744 mmHg 99%
20:00 +3°C° 0 mm 1 mps 744 mmHg 99%
21:00 +3°C° 0 mm 1 mps 744 mmHg 99%
22:00 +3°C° 0 mm 1 mps 744 mmHg 99%
23:00 +3°C° 0 mm 1 mps 744 mmHg 99%

Day after tomorrow, 18 April, Sunday

Time Temperature Precipitation Wind Pressure Humidity
00:00 +3°C° 0 mm 1 mps 743 mmHg 99%
01:00 +3°C° 0 mm 1 mps 743 mmHg 99%
02:00 +3°C° 0 mm 1 mps 743 mmHg 99%
03:00 +3°C° 0 mm 1 mps 743 mmHg 99%
04:00 +3°C° 0 mm 1 mps 743 mmHg 99%
05:00 +3°C° 0 mm 1 mps 743 mmHg 98%
06:00 +3°C° 0 mm 1 mps 743 mmHg 98%
07:00 +2°C° 0 mm 2 mps 742 mmHg 98%
08:00 +3°C° 0 mm 2 mps 742 mmHg 97%
09:00 +4°C° 0 mm 2 mps 742 mmHg 97%
10:00 +4°C° 0 mm 2 mps 742 mmHg 96%
11:00 +4°C° 0 mm 3 mps 742 mmHg 95%
12:00 +5°C° 0 mm 3 mps 742 mmHg 94%
13:00 +5°C° 0 mm 3 mps 742 mmHg 92%
14:00 +7°C° 0 mm 3 mps 742 mmHg 91%
15:00 +7°C° 0 mm 2 mps 742 mmHg 90%
16:00 +7°C° 0 mm 2 mps 742 mmHg 90%
17:00 +7°C° 0 mm 2 mps 741 mmHg 90%
18:00 +7°C° 0 mm 1 mps 741 mmHg 91%
19:00 +7°C° 0 mm 1 mps 742 mmHg 93%
20:00 +5°C° 0 mm 0 mps 742 mmHg 95%
21:00 +5°C° 0 mm 0 mps 742 mmHg 95%
22:00 +6°C° 0 mm 1 mps 741 mmHg 94%
23:00 +6°C° 0 mm 1 mps 741 mmHg 94%

19 April, Monday

Time Temperature Precipitation Wind Pressure Humidity
00:00 +6°C° 0.1 mm 1 mps 741 mmHg 95%
01:00 +6°C° 0.1 mm 1 mps 741 mmHg 96%
02:00 +5°C° 0.1 mm 2 mps 741 mmHg 96%
03:00 +5°C° 0 mm 2 mps 741 mmHg 96%
04:00 +4°C° 0 mm 2 mps 741 mmHg 96%
05:00 +3°C° 0 mm 3 mps 741 mmHg 96%
06:00 +4°C° 0 mm 3 mps 741 mmHg 91%
07:00 +4°C° 0 mm 3 mps 741 mmHg 87%
08:00 +5°C° 0 mm 3 mps 741 mmHg 83%
09:00 +7°C° 0 mm 3 mps 740 mmHg 77%
10:00 +8°C° 0 mm 3 mps 740 mmHg 71%
11:00 +8°C° 0 mm 4 mps 740 mmHg 65%
12:00 +9°C° 0 mm 3 mps 740 mmHg 67%
13:00 +9°C° 0 mm 3 mps 740 mmHg 68%
14:00 +9°C° 0 mm 2 mps 739 mmHg 70%
15:00 +9°C° 0 mm 3 mps 739 mmHg 68%
16:00 +10°C° 0 mm 3 mps 738 mmHg 67%
17:00 +10°C° 0 mm 3 mps 738 mmHg 65%
18:00 +9°C° 0.1 mm 3 mps 738 mmHg 72%
19:00 +8°C° 0.1 mm 3 mps 737 mmHg 78%
20:00 +5°C° 0.1 mm 3 mps 737 mmHg 85%
21:00 +6°C° 0 mm 2 mps 737 mmHg 87%
22:00 +5°C° 0 mm 2 mps 737 mmHg 90%
23:00 +4°C° 0 mm 2 mps 737 mmHg 92%

20 April, Tuesday

Time Temperature Precipitation Wind Pressure Humidity
00:00 +4°C° 0 mm 2 mps 736 mmHg 93%
01:00 +3°C° 0 mm 2 mps 736 mmHg 95%
02:00 +3°C° 0 mm 2 mps 736 mmHg 96%
03:00 +3°C° 0 mm 2 mps 735 mmHg 96%
04:00 +3°C° 0 mm 2 mps 735 mmHg 95%
05:00 +4°C° 0 mm 2 mps 734 mmHg 95%
06:00 +3°C° 0 mm 3 mps 734 mmHg 95%
07:00 +3°C° 0 mm 4 mps 734 mmHg 94%
08:00 +4°C° 0 mm 4 mps 734 mmHg 94%
09:00 +5°C° 0.1 mm 5 mps 734 mmHg 88%
10:00 +5°C° 0.1 mm 5 mps 733 mmHg 82%
11:00 +5°C° 0.1 mm 6 mps 733 mmHg 77%
12:00 +6°C° 0.1 mm 7 mps 733 mmHg 76%
13:00 +6°C° 0.1 mm 7 mps 732 mmHg 76%
14:00 +6°C° 0.1 mm 8 mps 732 mmHg 75%
15:00 +6°C° 0.1 mm 7 mps 732 mmHg 75%
16:00 +6°C° 0.1 mm 7 mps 732 mmHg 75%
17:00 +6°C° 0.1 mm 7 mps 732 mmHg 75%
18:00 +5°C° 0.3 mm 7 mps 732 mmHg 80%
19:00 +5°C° 0.3 mm 6 mps 732 mmHg 85%
20:00 +4°C° 0.3 mm 6 mps 732 mmHg 90%
21:00 +4°C° 0.4 mm 6 mps 732 mmHg 90%
22:00 +4°C° 0.4 mm 7 mps 732 mmHg 89%
23:00 +4°C° 0.4 mm 7 mps 732 mmHg 89%

21 April, Wednesday

Time Temperature Precipitation Wind Pressure Humidity
00:00 +4°C° 0 mm 7 mps 732 mmHg 89%
01:00 +2°C° 0 mm 8 mps 732 mmHg 89%
02:00 +2°C° 0 mm 8 mps 732 mmHg 89%
03:00 +2°C° 0 mm 8 mps 732 mmHg 89%
04:00 +4°C° 0 mm 8 mps 732 mmHg 88%
05:00 +4°C° 0 mm 8 mps 732 mmHg 88%
06:00 +4°C° 0 mm 8 mps 733 mmHg 86%
07:00 +4°C° 0 mm 8 mps 733 mmHg 84%
08:00 +4°C° 0 mm 8 mps 734 mmHg 82%
09:00 +5°C° 0 mm 8 mps 734 mmHg 76%
10:00 +7°C° 0 mm 9 mps 735 mmHg 69%
11:00 +8°C° 0 mm 9 mps 735 mmHg 62%
12:00 +9°C° 0.1 mm 8 mps 735 mmHg 61%
13:00 +10°C° 0.1 mm 8 mps 735 mmHg 60%
14:00 +10°C° 0.1 mm 7 mps 736 mmHg 59%
15:00 +10°C° 0.1 mm 7 mps 736 mmHg 60%
16:00 +10°C° 0.1 mm 6 mps 736 mmHg 61%
17:00 +10°C° 0.1 mm 6 mps 737 mmHg 63%
18:00 +8°C° 0 mm 5 mps 737 mmHg 68%
19:00 +7°C° 0 mm 4 mps 738 mmHg 72%
20:00 +6°C° 0 mm 2 mps 739 mmHg 77%
21:00 +5°C° 0 mm 2 mps 739 mmHg 78%
22:00 +5°C° 0 mm 2 mps 739 mmHg 80%
23:00 +3°C° 0 mm 3 mps 740 mmHg 81%
Show more

We Need Your Consent

Meteoprog and our Service Providers may store and access personal data such as cookies, device identifiers or other similar technologies on your device and process such data to personalise content and ads, as well as provide social media features and to analyse the traffic.

  • Store and/or access information on your device

    Cookies, device identifiers or other information can be stored or accessed on your device for the purposes indicated above.

  • Personalised ads and content, ad and content measurement, audience insights, and products development

    Ads and content can be personalised based on a profile. More data can be added to better personalise ads and content. Ad and content performance can be measured. Insights about the audience who saw the ads and content can be derived. Such data can be used to develop or improve user’s experience, systems and software.

By clicking ‘I Agree’ you will allow the use of indicated cookies, device identifiers, web beacons or other similar technologies. Your settings can be changed in the browser on your device.

For certain purposes, legitimate interests may be relied on, rather than consent. You can read more about this in our Privacy and Cookie Policy.